Le nostre stazioni meteo in Italia

Pubblicità
Il mio iltempo24.it
Otranto, Italia (16334): Temperatura & dewpoint: 10.07.2018 20:00:00 - 16.07.2018 20:00:00 (CEST)Otranto, Italia (16334): velocità del vento: 10.07.2018 20:00:00 - 16.07.2018 20:00:00 (CEST)Otranto, Italia (16334): direzione del vento: 10.07.2018 20:00:00 - 16.07.2018 20:00:00 (CEST)Otranto, Italia (16334): reduced air pressure: 10.07.2018 20:00:00 - 16.07.2018 20:00:00 (CEST)Otranto, Italia (16334): precipitazioni: 10.07.2018 20:00:00 - 16.07.2018 20:00:00 (CEST)
Data & Tempo tt [°C] td [°C] ff [km/h] ff [kn] dd ppp [hPa] rr [mm]
16.07.2018 20:00:00 - - - - - - -
16.07.2018 19:00:00 28,6 24,8 11 6 S 1011,6 -
16.07.2018 18:00:00 29,5 25,0 13 7 S 1012,0 -
16.07.2018 17:00:00 29,6 26,0 13 7 S 1012,1 -
16.07.2018 16:00:00 30,2 25,5 13 7 S 1012,3 -
16.07.2018 15:00:00 31,8 26,1 9 5 SE 1012,5 -
16.07.2018 14:00:00 30,0 24,4 5 3 NNE 1013,0 0,0
16.07.2018 13:00:00 29,1 26,7 11 6 NE 1013,1 -
16.07.2018 12:00:00 28,9 27,1 11 6 NNE 1013,3 -
16.07.2018 11:00:00 28,6 27,4 9 5 N 1013,3 -
16.07.2018 10:00:00 28,0 26,4 9 5 N 1012,6 -
16.07.2018 09:00:00 26,9 26,4 9 5 N 1012,4 -
16.07.2018 08:00:00 25,6 25,5 5 3 NNO 1012,0 0,0
16.07.2018 07:00:00 23,8 23,7 8 4 NNO 1011,9 -
16.07.2018 06:00:00 23,2 23,1 8 4 N 1012,3 -
16.07.2018 05:00:00 23,0 22,9 5 3 NNO 1012,4 -
16.07.2018 04:00:00 23,4 23,3 5 3 NNO 1012,3 -
16.07.2018 03:00:00 23,3 22,9 5 3 NO 1012,6 -
16.07.2018 02:00:00 23,8 22,4 5 3 N 1012,6 0,0
16.07.2018 01:00:00 24,1 22,5 5 3 N 1012,6 -
16.07.2018 00:00:00 24,4 22,2 4 2 N 1012,7 -
15.07.2018 23:00:00 25,1 23,1 5 3 NNO 1012,4 -
15.07.2018 22:00:00 25,1 22,5 5 3 NO 1012,4 -
15.07.2018 21:00:00 25,9 23,3 4 2 NNO 1011,7 -
15.07.2018 20:00:00 27,5 24,7 4 2 NNO 1011,4 0,0
15.07.2018 19:00:00 28,6 25,2 4 2 N 1011,4 -
15.07.2018 18:00:00 29,2 26,0 9 5 NE 1011,4 -
15.07.2018 17:00:00 29,7 26,7 11 6 NNE 1011,7 -
15.07.2018 16:00:00 28,9 26,9 13 7 NE 1012,0 -
15.07.2018 15:00:00 28,5 26,7 11 6 N 1012,2 -
15.07.2018 14:00:00 28,6 28,1 11 6 N 1012,3 0,0
15.07.2018 13:00:00 28,6 27,7 11 6 NNE 1012,5 -
15.07.2018 12:00:00 28,5 26,7 13 7 NE 1012,7 -
15.07.2018 11:00:00 28,4 26,6 11 6 N 1012,8 -
15.07.2018 10:00:00 27,0 25,4 13 7 N 1013,0 -
15.07.2018 09:00:00 26,2 25,9 13 7 NNO 1012,9 -
15.07.2018 08:00:00 24,3 24,2 11 6 N 1012,9 -
15.07.2018 07:00:00 22,0 21,9 13 7 NNO 1013,1 -
15.07.2018 06:00:00 21,2 21,1 13 7 NNO 1012,5 -
15.07.2018 05:00:00 21,6 21,5 13 7 NO 1012,6 -
15.07.2018 04:00:00 22,0 21,9 15 8 NNO 1012,7 -
15.07.2018 03:00:00 22,2 22,1 15 8 NNO 1013,0 -
15.07.2018 02:00:00 21,9 21,8 13 7 NNO 1013,6 0,0
15.07.2018 01:00:00 21,8 21,7 11 6 NNO 1013,6 -
15.07.2018 00:00:00 22,2 22,1 11 6 NNO 1014,0 -
14.07.2018 23:00:00 22,6 22,5 8 4 NNO 1014,3 -
14.07.2018 22:00:00 23,8 23,7 16 9 N 1014,0 -
14.07.2018 21:00:00 23,9 23,8 16 9 N 1013,8 -
14.07.2018 20:00:00 25,1 23,5 16 9 NNO 1013,7 0,0
14.07.2018 19:00:00 27,4 25,4 13 7 N 1013,4 -
14.07.2018 18:00:00 28,2 25,8 18 10 NNE 1013,7 -
14.07.2018 17:00:00 28,1 26,3 21 11 N 1014,1 -
14.07.2018 16:00:00 27,5 27,0 22 12 N 1014,4 -
14.07.2018 15:00:00 27,0 27,0 26 14 N 1014,8 -
14.07.2018 14:00:00 27,3 27,1 26 14 N 1015,2 0,0
14.07.2018 13:00:00 27,7 27,4 22 12 N 1015,3 -
14.07.2018 12:00:00 27,5 27,2 22 12 N 1015,5 -
14.07.2018 11:00:00 27,1 26,9 22 12 N 1015,7 -
14.07.2018 10:00:00 26,7 26,4 24 13 NNE 1015,5 -
14.07.2018 09:00:00 26,0 25,7 26 14 N 1015,4 -
14.07.2018 08:00:00 25,3 25,2 24 13 NNE 1015,1 0,0
14.07.2018 07:00:00 23,3 23,2 15 8 N 1015,0 -
14.07.2018 06:00:00 21,8 21,7 15 8 NNO 1015,0 -
14.07.2018 05:00:00 21,5 21,4 11 6 NO 1015,1 -
14.07.2018 04:00:00 21,5 21,4 9 5 NO 1015,1 -
14.07.2018 03:00:00 21,8 21,7 9 5 NNO 1015,0 -
14.07.2018 02:00:00 22,4 22,3 9 5 NNO 1015,4 0,0
14.07.2018 01:00:00 22,4 22,3 9 5 NNO 1015,7 -
14.07.2018 00:00:00 23,3 23,2 11 6 NNO 1016,0 -
13.07.2018 23:00:00 23,6 23,5 13 7 NNO 1016,0 -
13.07.2018 22:00:00 23,8 23,7 11 6 N 1015,8 -
13.07.2018 21:00:00 24,1 24,0 11 6 NNO 1014,9 -
13.07.2018 20:00:00 25,2 25,1 15 8 N 1014,5 0,0
13.07.2018 19:00:00 25,9 25,9 16 9 N 1014,5 -
13.07.2018 18:00:00 26,5 26,5 16 9 NNO 1014,6 -
13.07.2018 17:00:00 26,7 26,7 18 10 N 1014,9 -
13.07.2018 16:00:00 27,0 27,0 18 10 N 1015,1 -
13.07.2018 15:00:00 26,8 26,8 21 11 N 1015,4 -
13.07.2018 14:00:00 27,7 27,0 16 9 N 1015,7 0,0
13.07.2018 13:00:00 27,7 26,1 21 11 NE 1015,8 -
13.07.2018 12:00:00 27,7 27,5 18 10 N 1015,9 -
13.07.2018 11:00:00 27,6 26,0 15 8 N 1015,7 -
13.07.2018 10:00:00 26,7 25,1 15 8 N 1015,6 -
13.07.2018 09:00:00 25,8 25,8 15 8 NNE 1015,4 -
13.07.2018 08:00:00 24,9 24,8 9 5 NNO 1015,0 -
13.07.2018 07:00:00 23,4 23,3 8 4 N 1014,9 -
13.07.2018 06:00:00 22,4 22,3 8 4 N 1014,5 -
13.07.2018 05:00:00 22,5 22,4 5 3 N 1014,4 -
13.07.2018 04:00:00 22,8 22,7 5 3 N 1014,3 -
13.07.2018 03:00:00 23,2 23,1 5 3 N 1014,4 -
13.07.2018 02:00:00 23,3 23,2 5 3 NO 1014,7 0,0
13.07.2018 01:00:00 23,6 23,5 4 2 N 1015,1 -
13.07.2018 00:00:00 23,9 23,8 4 2 N 1015,0 -
12.07.2018 23:00:00 24,2 24,1 4 2 NNO 1014,5 -
12.07.2018 22:00:00 24,5 24,4 2 1 N 1014,5 -
12.07.2018 21:00:00 24,8 24,7 0 0 N 1014,3 -
12.07.2018 20:00:00 25,8 25,8 4 2 E 1014,0 0,0
12.07.2018 19:00:00 26,5 26,5 5 3 S 1013,7 -
12.07.2018 18:00:00 26,5 26,5 13 7 SE 1013,6 -
12.07.2018 17:00:00 27,4 27,4 11 6 ESE 1013,8 -
12.07.2018 16:00:00 27,8 27,8 11 6 ESE 1013,7 -
12.07.2018 15:00:00 27,4 27,4 16 9 S 1014,1 -
12.07.2018 14:00:00 27,2 27,2 16 9 SSE 1014,2 0,0
12.07.2018 13:00:00 26,9 26,9 16 9 S 1014,6 -
12.07.2018 12:00:00 27,1 27,1 11 6 S 1014,5 -
12.07.2018 11:00:00 26,3 26,3 9 5 S 1014,6 -
12.07.2018 10:00:00 25,8 25,8 11 6 S 1014,4 -
12.07.2018 09:00:00 25,2 25,1 9 5 S 1014,2 -
12.07.2018 08:00:00 24,3 24,2 8 4 S 1014,1 0,0
12.07.2018 07:00:00 23,7 23,6 8 4 S 1013,6 -
12.07.2018 06:00:00 23,1 23,0 9 5 S 1013,5 -
12.07.2018 05:00:00 23,1 23,0 11 6 S 1013,2 -
12.07.2018 04:00:00 23,2 23,1 15 8 S 1013,3 -
12.07.2018 03:00:00 23,1 23,0 9 5 S 1013,5 -
12.07.2018 02:00:00 22,7 22,6 8 4 SSE 1013,6 0,0
12.07.2018 01:00:00 22,9 22,8 4 2 SE 1013,8 -
12.07.2018 00:00:00 22,9 22,8 9 5 SSO 1013,9 -
11.07.2018 23:00:00 23,1 23,0 8 4 SSO 1013,7 -
11.07.2018 22:00:00 23,4 23,0 8 4 SSO 1013,5 -
11.07.2018 21:00:00 24,1 24,0 9 5 SSO 1013,0 -
11.07.2018 20:00:00 24,8 24,7 15 8 SSO 1012,7 0,0
11.07.2018 19:00:00 25,5 25,1 15 8 S 1012,4 -
11.07.2018 18:00:00 25,8 25,8 16 9 SSE 1012,7 -
11.07.2018 17:00:00 26,2 25,5 16 9 S 1012,9 -
11.07.2018 16:00:00 26,4 25,7 16 9 S 1012,9 -
11.07.2018 15:00:00 26,3 25,6 15 8 S 1013,1 -
11.07.2018 14:00:00 26,4 24,8 11 6 S 1013,4 0,0
11.07.2018 13:00:00 26,7 24,7 9 5 S 1013,5 -
11.07.2018 12:00:00 26,1 24,5 8 4 SSE 1013,6 -
11.07.2018 11:00:00 25,7 24,1 5 3 ESE 1013,6 -
11.07.2018 10:00:00 25,2 23,6 5 3 ESE 1013,4 -
11.07.2018 09:00:00 24,3 24,2 5 3 ESE 1013,2 -
11.07.2018 08:00:00 24,1 24,0 5 3 E 1013,3 0,0
11.07.2018 07:00:00 22,5 22,4 4 2 ESE 1013,0 -
11.07.2018 06:00:00 21,1 21,0 2 1 ESE 1012,6 -
11.07.2018 05:00:00 20,8 20,7 2 1 SE 1012,6 -
11.07.2018 04:00:00 21,2 21,1 4 2 ESE 1012,8 -
11.07.2018 03:00:00 22,2 22,1 2 1 E 1012,9 -
11.07.2018 02:00:00 22,3 22,2 2 1 E 1013,3 0,0
11.07.2018 01:00:00 22,4 22,3 4 2 E 1013,5 -
11.07.2018 00:00:00 22,5 22,4 4 2 ENE 1013,7 -
10.07.2018 23:00:00 22,7 22,6 2 1 ENE 1013,6 -
10.07.2018 22:00:00 22,4 22,3 2 1 ESE 1013,6 -
10.07.2018 21:00:00 22,8 21,4 4 2 S 1013,3 -
10.07.2018 20:00:00 24,0 22,4 4 2 NNE 1013,0 0,0

tt = Temperatura
td = dewpoint
ff = velocità del vento
dd = direzione del vento
ppp = reduced air pressure
rr = precipitazioni

Stazioni seguenti

WeatherPro
AMSI
MeteoEarth